TimeCST,TemperatureF,Dew PointF,Humidity,Sea Level PressureIn,VisibilityMPH,Wind Direction,Wind SpeedMPH,Gust SpeedMPH,PrecipitationIn,Events,Conditions,WindDirDegrees,DateUTC
12:15 AM,25.5,21.6,85,30.11,10.0,WNW,8.1,-,N/A,,Clear,290,2013-11-28 06:15:00
12:35 AM,25.3,21.0,84,30.11,10.0,WNW,8.1,-,N/A,,Clear,300,2013-11-28 06:35:00
12:55 AM,26.2,22.1,84,30.11,10.0,WNW,9.2,-,N/A,,Clear,300,2013-11-28 06:55:00
1:15 AM,25.7,21.4,84,30.12,10.0,West,8.1,-,N/A,,Clear,280,2013-11-28 07:15:00
1:35 AM,25.7,22.1,86,30.13,10.0,WNW,10.4,-,N/A,,Clear,300,2013-11-28 07:35:00
1:55 AM,27.5,23.0,83,30.14,10.0,NNW,10.4,-,N/A,,Clear,330,2013-11-28 07:55:00
2:15 AM,28.2,23.4,82,30.14,10.0,North,9.2,-,N/A,,Clear,350,2013-11-28 08:15:00
2:35 AM,26.1,22.1,85,30.15,10.0,North,6.9,-,N/A,,Clear,350,2013-11-28 08:35:00
2:55 AM,27.3,23.4,85,30.17,10.0,NNW,6.9,-,N/A,,Clear,330,2013-11-28 08:55:00
3:15 AM,26.2,22.1,84,30.18,10.0,NNW,10.4,-,N/A,,Clear,340,2013-11-28 09:15:00
3:35 AM,27.1,23.2,85,30.18,10.0,North,10.4,-,N/A,,Clear,350,2013-11-28 09:35:00
3:55 AM,24.1,20.5,86,30.19,10.0,NNW,3.5,-,N/A,,Clear,340,2013-11-28 09:55:00
4:15 AM,23.5,20.3,87,30.19,10.0,NNW,8.1,-,N/A,,Clear,340,2013-11-28 10:15:00
4:35 AM,23.2,20.5,89,30.19,10.0,North,5.8,-,N/A,,Clear,350,2013-11-28 10:35:00
4:55 AM,22.8,19.4,87,30.20,10.0,North,8.1,-,N/A,,Clear,350,2013-11-28 10:55:00
5:15 AM,21.7,18.9,89,30.21,10.0,WNW,4.6,-,N/A,,Clear,290,2013-11-28 11:15:00
5:35 AM,21.0,18.5,90,30.22,10.0,WNW,5.8,-,N/A,,Clear,290,2013-11-28 11:35:00
5:55 AM,21.0,18.5,90,30.23,10.0,West,6.9,-,N/A,,Clear,280,2013-11-28 11:55:00
6:15 AM,21.7,19.4,91,30.24,10.0,WNW,8.1,-,N/A,,Clear,290,2013-11-28 12:15:00
6:35 AM,21.9,19.2,89,30.25,10.0,WNW,6.9,-,N/A,,Clear,300,2013-11-28 12:35:00
6:55 AM,20.3,18.0,91,30.26,10.0,NW,6.9,-,N/A,,Clear,320,2013-11-28 12:55:00
7:15 AM,20.3,18.1,91,30.26,10.0,NNW,8.1,-,N/A,,Clear,340,2013-11-28 13:15:00
7:35 AM,19.8,17.4,91,30.26,10.0,NW,4.6,-,N/A,,Clear,310,2013-11-28 13:35:00
7:55 AM,18.5,16.3,91,30.27,10.0,NNW,5.8,-,N/A,,Scattered Clouds,330,2013-11-28 13:55:00
8:15 AM,19.9,17.8,91,30.28,10.0,WNW,3.5,-,N/A,,Mostly Cloudy,290,2013-11-28 14:15:00
8:35 AM,23.4,21.2,91,30.30,10.0,WNW,3.5,-,N/A,,Overcast,300,2013-11-28 14:35:00
8:55 AM,26.8,24.3,90,30.31,10.0,North,10.4,-,N/A,,Overcast,360,2013-11-28 14:55:00
9:15 AM,27.3,24.1,88,30.32,10.0,North,8.1,-,N/A,,Overcast,360,2013-11-28 15:15:00
9:35 AM,27.5,24.1,87,30.33,10.0,NNE,10.4,-,N/A,,Overcast,30,2013-11-28 15:35:00
9:55 AM,27.7,24.4,88,30.34,10.0,NNE,8.1,-,N/A,,Overcast,30,2013-11-28 15:55:00
10:15 AM,27.7,24.3,87,30.35,10.0,North,10.4,-,N/A,,Overcast,10,2013-11-28 16:15:00
10:35 AM,28.4,24.6,86,30.35,10.0,NE,9.2,-,N/A,,Overcast,40,2013-11-28 16:35:00
10:55 AM,28.8,24.6,84,30.35,10.0,NNE,8.1,-,N/A,,Overcast,30,2013-11-28 16:55:00
11:15 AM,29.3,25.0,84,30.35,10.0,NNE,6.9,-,N/A,,Overcast,30,2013-11-28 17:15:00
11:35 AM,30.0,25.0,82,30.36,10.0,NE,6.9,-,N/A,,Overcast,40,2013-11-28 17:35:00
11:55 AM,30.2,24.4,79,30.35,10.0,NNE,6.9,-,N/A,,Overcast,20,2013-11-28 17:55:00
12:15 PM,31.1,24.4,76,30.34,10.0,ENE,8.1,-,N/A,,Overcast,70,2013-11-28 18:15:00
12:35 PM,31.3,24.4,76,30.34,10.0,NNE,4.6,-,N/A,,Overcast,30,2013-11-28 18:35:00
12:55 PM,31.1,24.4,76,30.34,10.0,NNE,4.6,-,N/A,,Overcast,20,2013-11-28 18:55:00
1:15 PM,31.1,24.3,76,30.34,10.0,NE,8.1,-,N/A,,Overcast,50,2013-11-28 19:15:00
1:35 PM,30.6,23.7,76,30.34,10.0,NNE,5.8,-,N/A,,Overcast,30,2013-11-28 19:35:00
1:55 PM,30.4,23.4,75,30.34,10.0,ENE,3.5,-,N/A,,Overcast,60,2013-11-28 19:55:00
2:15 PM,30.2,23.2,75,30.34,10.0,North,4.6,-,N/A,,Overcast,10,2013-11-28 20:15:00
2:35 PM,29.8,22.8,75,30.34,10.0,Calm,Calm,-,N/A,,Overcast,0,2013-11-28 20:35:00
2:55 PM,30.0,22.6,74,30.34,10.0,NE,3.5,-,N/A,,Mostly Cloudy,40,2013-11-28 20:55:00
3:15 PM,30.2,22.6,73,30.34,10.0,Calm,Calm,-,N/A,,Clear,0,2013-11-28 21:15:00
3:35 PM,30.9,22.8,72,30.34,10.0,ENE,4.6,-,N/A,,Scattered Clouds,70,2013-11-28 21:35:00
3:55 PM,30.9,22.1,70,30.34,10.0,ENE,4.6,-,N/A,,Clear,60,2013-11-28 21:55:00
4:15 PM,30.7,22.3,71,30.34,10.0,East,4.6,-,N/A,,Clear,80,2013-11-28 22:15:00
4:35 PM,30.2,22.1,72,30.34,10.0,East,6.9,-,N/A,,Clear,90,2013-11-28 22:35:00
4:55 PM,28.6,21.7,76,30.34,10.0,East,5.8,-,N/A,,Clear,100,2013-11-28 22:55:00
5:15 PM,27.3,21.2,78,30.35,10.0,East,4.6,-,N/A,,Clear,100,2013-11-28 23:15:00
5:35 PM,26.2,20.5,79,30.35,10.0,Calm,Calm,-,N/A,,Clear,0,2013-11-28 23:35:00
5:55 PM,27.0,21.0,78,30.35,10.0,ESE,3.5,-,N/A,,Clear,120,2013-11-28 23:55:00
6:15 PM,26.6,21.2,80,30.36,10.0,SE,5.8,-,N/A,,Clear,130,2013-11-29 00:15:00
6:35 PM,25.5,20.8,82,30.35,10.0,ESE,5.8,-,N/A,,Clear,110,2013-11-29 00:35:00
6:50 PM,25.0,20.5,83,30.36,10.0,SE,4.6,-,N/A,,Clear,140,2013-11-29 00:50:00
7:15 PM,24.4,20.1,84,30.36,10.0,SE,4.6,-,N/A,,Clear,130,2013-11-29 01:15:00
7:35 PM,24.1,20.1,85,30.36,10.0,SE,3.5,-,N/A,,Clear,130,2013-11-29 01:35:00
7:55 PM,24.4,20.5,85,30.36,10.0,ESE,4.6,-,N/A,,Clear,120,2013-11-29 01:55:00
8:10 PM,24.1,20.1,85,30.35,10.0,ESE,4.6,-,N/A,,Clear,120,2013-11-29 02:10:00
8:35 PM,23.5,20.1,87,30.36,10.0,SE,5.8,-,N/A,,Clear,130,2013-11-29 02:35:00
8:55 PM,22.1,18.9,87,30.36,10.0,ESE,4.6,-,N/A,,Clear,120,2013-11-29 02:55:00
9:15 PM,22.6,19.4,87,30.36,10.0,ESE,4.6,-,N/A,,Clear,120,2013-11-29 03:15:00
9:35 PM,22.5,19.4,88,30.36,7.0,SE,5.8,-,N/A,,Clear,140,2013-11-29 03:35:00
9:55 PM,21.2,18.5,89,30.36,10.0,SE,3.5,-,N/A,,Clear,130,2013-11-29 03:55:00
10:15 PM,21.7,19.2,90,30.36,7.0,SE,4.6,-,N/A,,Clear,130,2013-11-29 04:15:00
10:35 PM,21.7,19.0,89,30.36,7.0,SE,4.6,-,N/A,,Clear,140,2013-11-29 04:35:00
10:55 PM,21.0,18.3,89,30.36,7.0,SE,3.5,-,N/A,,Clear,140,2013-11-29 04:55:00
11:15 PM,21.4,18.9,90,30.37,10.0,SE,4.6,-,N/A,,Clear,130,2013-11-29 05:15:00
11:35 PM,21.0,18.3,89,30.36,7.0,SE,4.6,-,N/A,,Clear,140,2013-11-29 05:35:00
11:55 PM,21.2,18.3,89,30.36,10.0,SE,5.8,-,N/A,,Clear,140,2013-11-29 05:55:00